STARLINK-1453, 45670

Orbit data source: Space-Track

STARLINK-1453, 45670 is a payload satellite owned by SpaceX/Seattle (US) in LEO that was launched on Thu, 04 Jun 2020 UTC via an FALCON 9 launch vehicle from the Air Force Eastern Test Range (AFETR). Payload-class satellites include a variety of spacecraft equipped with specific instruments for various scientific and technological missions. These include communications satellites like Starlink; space stations such as the ISS; scientific satellites like the Hubble; Earth observation satellites from companies like Planet Labs, Umbra, and HawkEye 360; GPS; miniature CubeSats for education and research; and military/defense satellites.

Loading next visibility...
Identifier
45670, 2020-035P
Orbit
LEO
Country
Flag of USUS
Related business
Manufacturer
SpaceX/Seattle
Mission
Partially operational Commercial Communications
Bus & Motor
STARLINK, Unknown motor
Mass
260 kg wet, ~248 kg dry
Launch date (UTC)
2020-06-04 (6 years ago)
Launch vehicle
FALCON 9
Launch site
Air Force Eastern Test Range (AFETR)
Object type
Payload
Rocket body
Debris
Shape & HBR
Box + 1 Pan, 10.1 m
Radar Cross Section
13.562 m², Large (>1 m²)

Expand to show TLE details & history
Last TLE update: 4 hours ago

TLE from 4 hours ago
0 STARLINK-1453
1 45670U 20035P   26238.16668980  .00146513  00000-0  51000-3 0  9996
2 45670  53.0301 255.5176 0009291  32.7091 185.0858 15.88400346  5908
Epoch: 2026-08-26T04:00Z
TLE epoch observation values (Epoch: 2026-08-26T04:00:01.998Z)
Latitude
-29.51908°
Longitude
66.16057°
Altitude
321.899 km
Speed
7.711 km/s
True Right ascension
06h 42m 22s
True Declination
-29° 21' 44"
Sunlit
Object was in daylight at epoch
Visualization orbit readout
Latitude
Unknown
Longitude
Unknown
Altitude
Unknown
Speed
Unknown
Apparent Right ascension
Unknown
Apparent Declination
Unknown
Sunlit
N/A
Visualization observer readout
Local Sidereal Time
23:18:41
Azimuth
Unknown
Elevation
Unknown
Doppler factor
Unknown
Orbital elements
Apogee altitude
313.263 km
Perigee altitude
300.84 km
Semi-major axis
6,685.188 km
Eccentricity
0.00093
Inclination
53.0301°
RAAN
255.5176°
Arg. of periapsis
32.7091°
True anomaly
185.07637°
Mean anomaly
185.0858°
Eccentric anomaly
185.08109°
Mean motion
3.97075 °/min
Orbital period
90.66 mins
BSTAR
0.00051
Loading maneuver chart data...
Computing Atmospheric mass density...
Loading historical data...
Loading historical data...
Loading historical data...
Loading historical data...
Loading historical data...
Loading historical data...
Loading historical data...

Documentation

Showing up to 5 results
|